Dublin, Ireland

10:19 PM IST on April 30, 2017 (GMT +0100)
Dublin International

Weather History for EIDW - May, 2012

Change the Weather History Date:

Wednesday, May 23, 2012

  Actual Average Record
Temperature  
Mean Temperature 57 °F -  
Max Temperature 68 °F 62 °F 68 °F (2012)
Min Temperature 46 °F 48 °F 35 °F (2004)
Degree Days  
Heating Degree Days 8    
Growing Degree Days 7 (Base 50)    
Moisture  
Dew Point 52 °F    
Average Humidity 80    
Maximum Humidity 100    
Minimum Humidity 53    
Precipitation  
Precipitation 0.00 in 0.07 in - ()
Sea Level Pressure  
Sea Level Pressure 30.23 in    
Wind  
Wind Speed 6 mph ()    
Max Wind Speed 14 mph    
Max Gust Speed -    
Visibility 6.4 miles    
Events Fog    
Averages and records for this station are not official NWS values.
T = Trace of Precipitation, MM = Missing Value Source: Averaged Metar Reports

Daily Weather History Graph

Daily Weather History Graph

Search for Another Location

Airport or City:

Trip Planner

Search our weather history database for the weather conditions in past years. The results will help you decide how hot, cold, wet, or windy it might be!

Date:

Astronomy

May. 23, 2012 Rise Set
Actual Time 5:12 AM IST 9:31 PM IST
Civil Twilight 4:25 AM IST 10:19 PM IST
Nautical Twilight 3:14 AM IST 11:30 PM IST
Astronomical Twilight 1:54 AM IST 12:49 AM IST
Moon 7:01 AM IST (5/23) 11:42 PM IST (5/23)
Length of Visible Light 17h 53m
Length of Day
16h 19m
Waxing Crescent, 6% of the Moon is Illuminated
May 23
Waxing Crescent
May 28
First Quarter
Jun 4
Full
Jun 11
Last Quarter
Jun 19
New

Hourly Weather History & Observations

Time (IST) Temp. Dew Point Humidity Pressure Visibility Wind Dir Wind Speed Gust Speed Precip Events Conditions
12:00 AM 55.4 °F 51.8 °F 88% 30.15 in 6.2 mi West 5.8 mph - N/A   Scattered Clouds
12:30 AM 55.4 °F 51.8 °F 88% 30.15 in 6.2 mi SSW 4.6 mph - N/A   Scattered Clouds
1:00 AM 54 °F 51 °F 88% 30.18 in 19 mi West 4.5 mph - -   Partly Cloudy
1:00 AM 53.6 °F 51.8 °F 94% 30.15 in 6.2 mi Variable 3.5 mph - N/A   Scattered Clouds
1:30 AM 55.4 °F 51.8 °F 88% 30.15 in 6.2 mi WSW 4.6 mph - N/A   Scattered Clouds
2:00 AM 55.4 °F 51.8 °F 88% 30.15 in 6.2 mi WSW 9.2 mph - N/A   Scattered Clouds
2:30 AM 55.4 °F 51.8 °F 88% 30.18 in 6.2 mi WSW 6.9 mph - N/A   Scattered Clouds
3:00 AM 55.4 °F 51.8 °F 88% 30.18 in 6.2 mi WSW 3.5 mph - N/A   Scattered Clouds
3:30 AM 51.8 °F 50.0 °F 94% 30.18 in 6.2 mi South 3.5 mph - N/A   Scattered Clouds
4:00 AM 48.2 °F 46.4 °F 93% 30.18 in 6.2 mi ESE 5.8 mph - N/A   Mostly Cloudy
4:30 AM 46.4 °F 44.6 °F 93% 30.18 in 6.2 mi Variable 1.2 mph - N/A Fog Shallow Fog
5:00 AM 48.2 °F 48.2 °F 100% 30.18 in 5.6 mi North 2.3 mph - N/A Fog Fog
5:30 AM 48.2 °F 48.2 °F 100% 30.18 in 5.6 mi Calm Calm - N/A Fog Fog
6:00 AM 48.2 °F 48.2 °F 100% 30.18 in 5.6 mi NNE 2.3 mph - N/A Fog Fog
6:30 AM 50.0 °F 50.0 °F 100% 30.21 in 5.6 mi WNW 4.6 mph - N/A Fog Fog
7:00 AM 54 °F 53 °F 95% 30.23 in 6 mi NNW 4.5 mph - -   Mist
7:00 AM 53.6 °F 53.6 °F 100% 30.21 in 5.6 mi NNW 4.6 mph - N/A   Mostly Cloudy
7:30 AM 53.6 °F 53.6 °F 100% 30.21 in 5.6 mi NNE 5.8 mph - N/A   Mostly Cloudy
8:00 AM 55.4 °F 53.6 °F 94% 30.21 in 5.6 mi ENE 4.6 mph - N/A   Mostly Cloudy
8:30 AM 57.2 °F 53.6 °F 88% 30.21 in 5.6 mi East 4.6 mph - N/A   Mostly Cloudy
9:00 AM 57.2 °F 53.6 °F 88% 30.24 in 6.2 mi Variable 2.3 mph - N/A   Mostly Cloudy
9:30 AM 60.8 °F 55.4 °F 82% 30.24 in 6.2 mi Variable 2.3 mph - N/A   Mostly Cloudy
10:00 AM 59.0 °F 55.4 °F 88% 30.24 in 6.2 mi Variable 1.2 mph - N/A   Mostly Cloudy
10:30 AM 60.8 °F 53.6 °F 77% 30.24 in 6.2 mi ESE 5.8 mph - N/A   Mostly Cloudy
11:00 AM 62.6 °F 55.4 °F 77% 30.24 in 6.2 mi ESE 8.1 mph - N/A   Scattered Clouds
11:30 AM 62.6 °F 55.4 °F 77% 30.24 in 6.2 mi ESE 9.2 mph - N/A   Partly Cloudy
12:00 PM 64.4 °F 53.6 °F 68% 30.24 in 6.2 mi ESE 10.4 mph - N/A   Partly Cloudy
12:30 PM 64.4 °F 55.4 °F 73% 30.24 in 6.2 mi SE 9.2 mph - N/A   Partly Cloudy
1:00 PM 64 °F 54 °F 63% 30.25 in 31 mi SE 13.4 mph - -   Scattered Clouds
1:00 PM 64.4 °F 55.4 °F 73% 30.24 in 6.2 mi ESE 12.7 mph - N/A   Partly Cloudy
1:30 PM 62.6 °F 55.4 °F 77% 30.24 in 6.2 mi SE 13.8 mph - N/A   Partly Cloudy
2:00 PM 64.4 °F 55.4 °F 73% 30.24 in 6.2 mi ESE 11.5 mph - N/A   Partly Cloudy
2:30 PM 64.4 °F 55.4 °F 73% 30.24 in 6.2 mi ESE 12.7 mph - N/A   Partly Cloudy
3:00 PM 64.4 °F 55.4 °F 73% 30.24 in 6.2 mi ESE 9.2 mph - N/A   Partly Cloudy
3:30 PM 64.4 °F 55.4 °F 73% 30.24 in 6.2 mi East 8.1 mph - N/A   Partly Cloudy
4:00 PM 68.0 °F 55.4 °F 64% 30.24 in 6.2 mi East 8.1 mph - N/A   Partly Cloudy
4:30 PM 68.0 °F 53.6 °F 60% 30.24 in 6.2 mi East 9.2 mph - N/A   Partly Cloudy
5:00 PM 68.0 °F 51.8 °F 56% 30.24 in 6.2 mi ESE 9.2 mph - N/A   Partly Cloudy
5:30 PM 68.0 °F 51.8 °F 56% 30.27 in 6.2 mi SE 4.6 mph - N/A   Partly Cloudy
6:00 PM 68.0 °F 51.8 °F 56% 30.27 in 6.2 mi WSW 11.5 mph - N/A   Partly Cloudy
6:30 PM 66.2 °F 51.8 °F 60% 30.27 in 6.2 mi WSW 11.5 mph - N/A   Partly Cloudy
7:00 PM 66 °F 53 °F 53% 30.28 in 22 mi WSW 11.2 mph - -   Scattered Clouds
7:00 PM 66.2 °F 51.8 °F 60% 30.27 in 6.2 mi WSW 11.5 mph - N/A   Partly Cloudy
7:30 PM 64.4 °F 51.8 °F 64% 30.27 in 6.2 mi WSW 11.5 mph - N/A   Partly Cloudy
8:00 PM 62.6 °F 51.8 °F 68% 30.30 in 6.2 mi WSW 12.7 mph - N/A   Partly Cloudy
8:30 PM 62.6 °F 51.8 °F 68% 30.30 in 6.2 mi WSW 9.2 mph - N/A   Partly Cloudy
9:00 PM 60.8 °F 51.8 °F 72% 30.30 in 6.2 mi WSW 9.2 mph - N/A   Partly Cloudy
9:30 PM 59.0 °F 51.8 °F 77% 30.33 in 6.2 mi WSW 9.2 mph - N/A   Partly Cloudy
10:00 PM 57.2 °F 50.0 °F 77% 30.33 in 6.2 mi West 6.9 mph - N/A   Partly Cloudy
10:30 PM 55.4 °F 50.0 °F 82% 30.33 in 6.2 mi WSW 10.4 mph - N/A   Partly Cloudy
11:00 PM 55.4 °F 50.0 °F 82% 30.33 in 6.2 mi WSW 9.2 mph - N/A   Partly Cloudy
11:30 PM 53.6 °F 50.0 °F 88% 30.33 in 6.2 mi West 6.9 mph - N/A   Partly Cloudy